User: anonymous   Login
Location: Fort Wayne
(41.1310°N, 85.1290°W)
Time: 08:41:22
(UTC-04:00)
Language:

Cosmos 2082 - Orbit

View from above orbital plane
View from above orbital plane
View from above satellite
View from above satellite

Ground track
Ground track

The orbit data is extracted from the following two-line orbital elements,

1 20624U 90046A   15180.69453976 -.00000290  00000-0 -12705-3 0  9998
2 20624 071.0408 278.3385 0013556 035.7802 324.4226 14.14157209295617
Epoch (UTC): 29 June 2015 16:40:08
Eccentricity: 0.0013556
inclination: 71.0408°
perigee height: 835 km
apogee height: 855 km
right ascension of ascending node: 278.3385°
argument of perigee: 35.7802°
revolutions per day: 14.14157209
mean anomaly at epoch: 324.4226°
orbit number at epoch: 29561

The dashed part of the orbit path shows where the satellite is in the earth's shadow,  

DLR